G6FJI-13 Weather Reports


Display with metric or nautical units.
time (UTC)temp
F
wind
direction
speed
MPH
gust
MPH
rain 1hr
in
rain 24hr
in
rain mn
in
humidity
%
barometer
mb
20260506164508 54 147 2.0 2.0 0.00 0.00 0.00 60 1016.7
20260506163424 55 197 1.0 2.0 0.00 0.00 0.00 59 1016.5
20260506162509 55 129 2.0 2.0 0.00 0.00 0.00 60 1016.5
20260506161430 55 207 1.0 1.0 0.00 0.00 0.00 60 1016.4
20260506160409 55 0.0 2.0 0.00 0.00 0.00 57 1016.3
20260506155326 56 0.0 5.0 0.00 0.00 0.00 59 1016.2
20260506154227 56 319 0.0 3.0 0.00 0.00 0.00 58 1016.5
20260506153313 56 114 1.0 2.0 0.00 0.00 0.00 57 1016.6
20260506152228 55 177 1.0 3.0 0.00 0.00 0.00 60 1016.5
20260506151332 55 135 1.0 2.0 0.00 0.00 0.00 58 1016.7
20260506150228 55 143 1.0 2.0 0.00 0.00 0.00 59 1016.6
20260506145313 56 98 3.0 3.0 0.00 0.00 0.00 57 1016.5
20260506144229 58 192 1.0 3.0 0.00 0.00 0.00 54 1016.5
20260506143333 57 168 1.0 2.0 0.00 0.00 0.00 56 1016.4
20260506142230 57 146 3.0 3.0 0.00 0.00 0.00 55 1016.6
20260506141314 58 111 0.0 3.0 0.00 0.00 0.00 52 1016.4
20260506140232 58 138 2.0 5.0 0.00 0.00 0.00 54 1016.5
20260506135335 59 212 1.0 3.0 0.00 0.00 0.00 51 1016.4
20260506134231 57 150 2.0 2.0 0.00 0.00 0.00 55 1016.7
20260506133316 57 195 3.0 5.0 0.00 0.00 0.00 55 1016.7
20260506132233 59 195 2.0 2.0 0.00 0.00 0.00 47 1016.8
20260506131317 55 149 1.0 3.0 0.00 0.00 0.00 57 1016.6
20260506130234 59 264 2.0 3.0 0.00 0.00 0.00 51 1016.6
20260506125318 57 145 2.0 3.0 0.00 0.00 0.00 53 1016.7
20260506124234 57 127 3.0 3.0 0.00 0.00 0.00 50 1016.7
20260506123318 57 147 2.0 3.0 0.00 0.00 0.00 50 1016.7
20260506122234 56 108 3.0 6.0 0.00 0.00 0.00 55 1016.6
20260506121319 56 199 2.0 3.0 0.00 0.00 0.00 54 1016.7
20260506120339 57 158 1.0 3.0 0.00 0.00 0.00 53 1016.7
20260506115236 57 179 2.0 5.0 0.00 0.00 0.00 53 1016.9
20260506114120 57 143 1.0 3.0 0.00 0.00 0.00 57 1016.7
20260506113217 57 134 2.0 3.0 0.00 0.00 0.00 56 1017.0
20260506112133 55 144 2.0 5.0 0.00 0.00 0.00 57 1017.1
20260506111217 55 132 1.0 2.0 0.00 0.00 0.00 56 1017.1
20260506110134 55 203 3.0 6.0 0.00 0.00 0.00 59 1017.2
20260506105225 53 135 2.0 3.0 0.00 0.00 0.00 62 1017.1
20260506104135 53 150 2.0 5.0 0.00 0.00 0.00 61 1017.3
20260506103219 53 139 1.0 3.0 0.00 0.00 0.00 64 1017.3
20260506102136 52 158 1.0 2.0 0.00 0.00 0.00 63 1017.2
20260506101104 51 161 1.0 2.0 0.00 0.00 0.00 66 1017.3
20260506100020 51 146 1.0 3.0 0.00 0.00 0.00 68 1017.1
20260506095125 50 162 1.0 2.0 0.00 0.00 0.00 70 1017.1
20260506094021 50 129 3.0 5.0 0.00 0.00 0.00 73 1017.3
20260506093126 50 128 2.0 2.0 0.00 0.00 0.00 74 1017.2
20260506092023 49 144 1.0 5.0 0.00 0.00 0.00 73 1017.3
20260506091107 49 166 1.0 3.0 0.00 0.00 0.00 74 1017.3
20260506090023 48 128 1.0 3.0 0.00 0.00 0.00 75 1017.2
20260506085128 48 181 1.0 3.0 0.00 0.00 0.00 76 1017.2
20260506084024 48 150 2.0 2.0 0.00 0.00 0.00 76 1017.2
20260506083108 48 139 1.0 2.0 0.00 0.00 0.00 78 1017.2
20260506082025 48 171 2.0 2.0 0.00 0.00 0.00 77 1017.1
20260506081109 47 169 3.0 3.0 0.00 0.00 0.00 78 1017.3
20260506073111 46 165 0.0 2.0 0.00 0.00 0.00 81 1017.2
20260506072037 46 170 1.0 1.0 0.00 0.00 0.00 81 1017.3
20260506071032 46 114 2.0 2.0 0.00 0.00 0.00 82 1016.9
20260506061929 46 143 1.0 2.0 0.00 0.00 0.00 82 1016.9
20260506061034 45 142 2.0 2.0 0.00 0.00 0.00 82 1016.9
20260506051016 46 121 1.0 2.0 0.00 0.00 0.00 83 1016.7
20260506045038 46 129 1.0 1.0 0.00 0.00 0.00 83 1016.5
20260506043934 46 146 1.0 1.0 0.00 0.00 0.00 84 1016.5
20260506043038 46 143 0.0 1.0 0.00 0.00 0.00 83 1016.5
20260506041935 46 142 1.0 2.0 0.00 0.00 0.00 82 1016.6
20260506041019 46 145 1.0 1.0 0.00 0.00 0.00 82 1016.6
20260506035936 46 143 1.0 2.0 0.00 0.00 0.00 82 1016.6
20260506035020 46 151 0.0 2.0 0.00 0.00 0.00 82 1016.8
20260506033936 46 150 1.0 2.0 0.00 0.00 0.00 81 1016.5
20260506033040 46 156 0.0 2.0 0.00 0.00 0.00 81 1016.6
20260506031937 46 160 1.0 1.0 0.00 0.00 0.00 81 1016.7
20260506031022 46 160 2.0 2.0 0.00 0.00 0.00 81 1016.6
20260506025958 47 168 1.0 2.0 0.00 0.00 0.00 80 1016.7
20260506025043 47 139 2.0 5.0 0.00 0.00 0.00 81 1016.6
20260506023939 47 169 1.0 1.0 0.00 0.00 0.00 81 1016.7
20260506022935 47 139 1.0 3.0 0.00 0.00 0.00 81 1016.7
20260506021946 47 165 0.0 1.0 0.00 0.00 0.00 84 1016.6
20260506020900 48 0.0 2.0 0.00 0.00 0.00 84 1016.6
20260506015925 48 0.0 1.0 0.00 0.00 0.00 83 1016.7
20260506014901 48 148 0.0 1.0 0.00 0.00 0.00 83 1016.5
20260506013824 48 139 1.0 2.0 0.00 0.00 0.00 82 1016.6
20260506012822 48 146 1.0 1.0 0.00 0.00 0.00 81 1016.6
20260506011738 48 180 2.0 2.0 0.00 0.00 0.00 81 1016.8
20260506010843 48 150 0.0 1.0 0.00 0.00 0.00 80 1017.1
20260506005739 48 166 0.0 3.0 0.00 0.00 0.00 79 1016.6
20260506004824 48 195 1.0 3.0 0.00 0.00 0.00 79 1016.8
20260506003740 48 142 2.0 3.0 0.00 0.00 0.00 79 1016.7
20260506002824 49 166 1.0 1.0 0.00 0.00 0.00 81 1016.7
20260506001740 49 186 1.0 2.0 0.00 0.00 0.00 81 1016.7
20260506000825 49 202 3.0 3.0 0.00 0.00 0.00 81 1016.6
20260505235741 50 175 2.0 3.0 0.00 0.00 0.00 82 1016.7
20260505234826 50 161 0.0 1.0 0.00 0.00 0.00 83 1016.7
20260505233742 50 186 1.0 2.0 0.00 0.00 0.00 82 1016.8
20260505232827 50 173 1.0 2.0 0.00 0.00 0.00 82 1016.7
20260505231743 50 166 1.0 2.0 0.00 0.00 0.00 81 1016.7
20260505230727 50 160 2.0 2.0 0.00 0.00 0.00 82 1016.8
20260505225643 51 174 1.0 1.0 0.00 0.00 0.00 82 1016.6
20260505224728 51 70 0.0 2.0 0.00 0.00 0.00 81 1016.4
20260505223645 51 187 1.0 2.0 0.00 0.00 0.00 80 1016.8
20260505222809 51 186 1.0 3.0 0.00 0.00 0.00 79 1016.9
20260505221645 51 51 1.0 2.0 0.00 0.00 0.00 79 1016.7
20260505220750 51 51 1.0 2.0 0.00 0.00 0.00 78 1016.7
20260505215707 52 50 2.0 5.0 0.00 0.00 0.00 77 1016.3
20260505214730 52 167 1.0 3.0 0.00 0.00 0.00 76 1016.7
20260505213647 52 145 2.0 3.0 0.00 0.00 0.00 76 1016.4
20260505212731 53 163 1.0 2.0 0.00 0.00 0.00 77 1016.5
20260505211708 53 172 1.0 2.0 0.00 0.00 0.00 77 1016.3
20260505210604 53 147 3.0 3.0 0.00 0.00 0.00 76 1016.2
20260505205533 54 178 1.0 2.0 0.00 0.00 0.00 76 1015.9
20260505204625 55 147 1.0 2.0 0.00 0.00 0.00 74 1016.0
20260505203534 54 154 0.0 1.0 0.00 0.00 0.00 72 1015.8
20260505202626 54 155 0.0 1.0 0.00 0.00 0.00 71 1015.8
20260505201555 55 147 0.0 1.0 0.00 0.00 0.00 70 1015.7
20260505200607 55 165 1.0 2.0 0.00 0.00 0.00 70 1015.8
20260505195536 55 152 1.0 1.0 0.00 0.00 0.00 70 1015.9
20260505194607 55 138 1.0 2.0 0.00 0.00 0.00 68 1015.6
20260505193536 55 133 0.0 2.0 0.00 0.00 0.00 70 1015.5
20260505192628 55 136 1.0 1.0 0.00 0.00 0.00 71 1015.4
20260505191537 56 152 0.0 2.0 0.00 0.00 0.00 69 1015.4
20260505190610 56 157 0.0 1.0 0.00 0.00 0.00 69 1015.4
20260505185537 56 156 1.0 2.0 0.00 0.00 0.00 68 1015.3
20260505184610 56 113 1.0 1.0 0.00 0.00 0.00 68 1015.1
20260505183539 57 99 1.0 1.0 0.00 0.00 0.00 68 1015.1
20260505182611 57 136 2.0 2.0 0.00 0.00 0.00 68 1015.3
20260505181539 57 131 1.0 1.0 0.00 0.00 0.00 68 1015.1
20260505180612 57 153 1.0 3.0 0.00 0.00 0.00 67 1015.1
20260505175541 57 143 1.0 2.0 0.00 0.00 0.00 68 1015.0
20260505174612 57 156 1.0 2.0 0.00 0.00 0.00 67 1015.3
20260505173541 57 173 1.0 1.0 0.00 0.00 0.00 66 1015.2
20260505172613 58 136 1.0 5.0 0.00 0.00 0.00 68 1015.2
20260505171542 58 131 1.0 3.0 0.00 0.00 0.00 67 1015.2
20260505170614 58 119 1.0 3.0 0.00 0.00 0.00 67 1015.2
20260505165604 58 132 1.0 3.0 0.00 0.00 0.00 67 1015.6